Tracking 20241 objects as of 26-Jan-2020
HD Live streaming from Space Station
objects crossing your sky now

ARIANE 5 R/B

Track ARIANE 5 R/B now!


NORAD ID: 42742
Int'l Code: 2017-029C
Perigee: 277.5 km
Apogee: 35,600.7 km
Inclination: 6.3 °
Period: 628.7 minutes
Semi major axis: 24310 km
RCS: Unknown
Launch date: June 1, 2017
Source: France (FR)
Launch site: FRENCH GUIANA (FRGUI)

Note: This is a ROCKET BODY
aabbcc
Your satellite tracking list
Your tracking list is empty




NASA's NSSDC Master Catalog

Two Line Element Set (TLE):
1 42742U 17029C   20025.10622280 +.00000985 +00000-0 +48302-3 0  9990
2 42742 006.3398 034.4124 7265130 247.4034 025.1935 02.29045893022120
Source of the keplerian elements: AFSPC